LiveATC.Net - Listen to live air traffic control over the Internet!
Airport/ARTCC Code
Frequency Search
(e.g., 124.400, 128.75)
Site-wide search
 


Browse Feeds
Top 50 Feeds
HF Oceanic Feeds
Coverage Map
Bad Weather Areas

LiveATC FAQ
Offer LiveATC feed
Contact LiveATC.net
Press Inquiries

LiveATC on iPhone
LiveATC on Android

Windows Phone
Windows 8/10

LiveATC Mobile
(Mobile browser)

ATC Audio Archives
Interesting Recordings

LiveATC Forums

Home Page
About LiveATC.net
Make a Donation
Terms of Use
Privacy Policy

Canadian Air Freqs

AIRMETs/SIGMETs

FAA Airport Status
Nat'l Airspace Status
Arrival Demand Charts


Server Software By:
Icecast.org
Liquidsoap

Select an area of interest:
U.S. Feeds: Class B Airports | Class C Airports | Class D/Other Airports | ARTCC (Centers)
International Feeds: Canada | Europe | Oceania | Asia | South America | North/Central America | Africa
Misc Feeds: HF Feeds
Search by ICAO/IATA airport code:   (e.g., kbos, kjfk, lax, eham, etc.)


Currently Available Live Feeds: 2843
Status Updated: Sun Apr 18 2021 11:22:04 UTC


NOTICE

Unauthorized use prohibited. See LiveATC.net Terms of Service

Asia Airport Feeds

 

OBBI Gnd/Twr/App (Archives)
Muharraq, Bahrain

Feed Status: UP
Listen in your browser - HTML5 player(in browser, HTML5)
Click here to listen with your own player(launches your MP3 player)

OBBI 181100Z 34005KT 310V010 CAVOK 32/05 Q1012 NOSIG


Listeners: 2 out of 1325 total

Bahrain Arrival: 127.850
Bahrain Control (Low Central): 124.300
Bahrain Control (Low East): 125.700
Bahrain Control (Low North): 126.700
Bahrain Departure: 119.100
Bahrain Ground: 121.850
Bahrain Tower: 118.500

OKBK Gnd/Twr/App/Radar (Archives)
Kuwait City, Kuwait

Feed Status: UP
Listen in your browser - HTML5 player(in browser, HTML5)
Click here to listen with your own player(launches your MP3 player)

OKBK 181100Z 35020KT 5000 BLDU SKC 38/01 Q1011 NOSIG


Listeners: 1 out of 1325 total

Kuwait Approach: 121.300
Kuwait Approach: 124.800
Kuwait Ground: 121.700
Kuwait Radar (Center): 125.300
Kuwait Tower: 118.300

OPKC Gnd/Twr/Radar (Archives)
Karachi, Pakistan

Feed Status: UP
Listen in your browser - HTML5 player(in browser, HTML5)
Click here to listen with your own player(launches your MP3 player)

OPKC 181055Z 24014KT 7000 NSC 34/20 Q1010 NOSIG


Listeners: 4 out of 1325 total

Karachi Ground: 121.600
Karachi Radar: 125.500
Karachi Tower: 118.300

OPLA ATIS (Archives)
Lahore, Pakistan

Feed Status: UP
Listen in your browser - HTML5 player(in browser, HTML5)
Click here to listen with your own player(launches your MP3 player)

OPLA 181055Z 29004KT 8000 31/10 Q1010 NOSIG RMK QFE983 RMK A29.85


Listeners: 0 out of 1325 total

Lahore ATIS: 126.300

OPLA/OPLH Gnd/Twr/App (Archives)
Lahore, Pakistan

Feed Status: UP
Listen in your browser - HTML5 player(in browser, HTML5)
Click here to listen with your own player(launches your MP3 player)

OPLA 181055Z 29004KT 8000 31/10 Q1010 NOSIG RMK QFE983 RMK A29.85


Listeners: 1 out of 1325 total

Lahore Approach: 121.300
Lahore Approach: 125.300
Lahore Control: 127.500
Lahore Ground: 118.400
Lahore Tower: 118.100
Lahore Tower: 121.800
Walton (OPLH) Tower: 119.400

RCTP Approach
Taipei, Taiwan

Feed Status: DOWN
Offline since: 2021-04-16 15:14:06 UTC

RCTP 181030Z 06020KT 9999 FEW012 BKN080 BKN180 20/10 Q1016 WS R05L NOSIG RMK A3001

Emergency/Guard: 121.500
Taipei Approach: 125.100
Taipei Approach: 125.600
Taipei Approach: 128.500

RCTP Tower
Taipei, Taiwan

Feed Status: DOWN
Offline since: 2021-04-16 15:14:06 UTC

RCTP 181030Z 06020KT 9999 FEW012 BKN080 BKN180 20/10 Q1016 WS R05L NOSIG RMK A3001

Taipei Tower: 118.700

RJAA Approach (Archives)
Tokyo, Japan

Feed Status: UP
Listen in your browser - HTML5 player(in browser, HTML5)
Click here to listen with your own player(launches your MP3 player)

RJAA 181030Z 26004KT 190V320 9999 FEW030 13/M00 Q1000 NOSIG RMK 1CU030 A2955

RJAA Flight Activity (Flightaware)

Listeners: 11 out of 1325 total

Tokyo Approach: 124.400
Tokyo Approach: 127.700

RJAA ATIS (Archives)
Tokyo, Japan

Feed Status: UP
Listen in your browser - HTML5 player(in browser, HTML5)
Click here to listen with your own player(launches your MP3 player)

RJAA 181030Z 26004KT 190V320 9999 FEW030 13/M00 Q1000 NOSIG RMK 1CU030 A2955

RJAA Flight Activity (Flightaware)

Listeners: 0 out of 1325 total

Narita ATIS: 128.250

RJAA Clearance Delivery (Archives)
Tokyo, Japan

Feed Status: UP
Listen in your browser - HTML5 player(in browser, HTML5)
Click here to listen with your own player(launches your MP3 player)

RJAA 181030Z 26004KT 190V320 9999 FEW030 13/M00 Q1000 NOSIG RMK 1CU030 A2955

RJAA Flight Activity (Flightaware)

Listeners: 0 out of 1325 total

Narita Clearance Delivery (Asia/Pacific): 121.650
Narita Clearance Delivery (US/Europe): 121.900

RJAA Clearance Delivery #1 (Archives)
Tokyo, Japan

Feed Status: UP
Listen in your browser - HTML5 player(in browser, HTML5)
Click here to listen with your own player(launches your MP3 player)

RJAA 181030Z 26004KT 190V320 9999 FEW030 13/M00 Q1000 NOSIG RMK 1CU030 A2955

RJAA Flight Activity (Flightaware)

Listeners: 0 out of 1325 total

Narita Clearance Delivery (Asia/Pacific): 121.650

RJAA Clearance Delivery #2 (Archives)
Tokyo, Japan

Feed Status: UP
Listen in your browser - HTML5 player(in browser, HTML5)
Click here to listen with your own player(launches your MP3 player)

RJAA 181030Z 26004KT 190V320 9999 FEW030 13/M00 Q1000 NOSIG RMK 1CU030 A2955

RJAA Flight Activity (Flightaware)

Listeners: 1 out of 1325 total

Narita Clearance Delivery (US/Europe): 121.900

RJAA Company Channels (Archives)
Tokyo, Japan

Feed Status: UP
Listen in your browser - HTML5 player(in browser, HTML5)
Click here to listen with your own player(launches your MP3 player)

RJAA 181030Z 26004KT 190V320 9999 FEW030 13/M00 Q1000 NOSIG RMK 1CU030 A2955

RJAA Flight Activity (Flightaware)

Listeners: 1 out of 1325 total

Ops: 130.450
Ops: 130.550
Ops: 130.900
Ops: 131.025
Ops: 131.100
Ops: 131.200
Ops: 131.700
Ops: 131.750

RJAA Departure (Archives)
Tokyo, Japan

Feed Status: UP
Listen in your browser - HTML5 player(in browser, HTML5)
Click here to listen with your own player(launches your MP3 player)

RJAA 181030Z 26004KT 190V320 9999 FEW030 13/M00 Q1000 NOSIG RMK 1CU030 A2955

RJAA Flight Activity (Flightaware)

Listeners: 5 out of 1325 total

Tokyo Departure: 119.600
Tokyo Departure: 124.200

RJAA Departure #1 (Archives)
Tokyo, Japan

Feed Status: UP
Listen in your browser - HTML5 player(in browser, HTML5)
Click here to listen with your own player(launches your MP3 player)

RJAA 181030Z 26004KT 190V320 9999 FEW030 13/M00 Q1000 NOSIG RMK 1CU030 A2955

RJAA Flight Activity (Flightaware)

Listeners: 0 out of 1325 total

Tokyo Departure: 124.200

RJAA Departure #2 (Archives)
Tokyo, Japan

Feed Status: UP
Listen in your browser - HTML5 player(in browser, HTML5)
Click here to listen with your own player(launches your MP3 player)

RJAA 181030Z 26004KT 190V320 9999 FEW030 13/M00 Q1000 NOSIG RMK 1CU030 A2955

RJAA Flight Activity (Flightaware)

Listeners: 0 out of 1325 total

Tokyo Departure: 119.600

RJAA Emergency/Guard (Archives)
Tokyo, Japan

Feed Status: UP
Listen in your browser - HTML5 player(in browser, HTML5)
Click here to listen with your own player(launches your MP3 player)

RJAA 181030Z 26004KT 190V320 9999 FEW030 13/M00 Q1000 NOSIG RMK 1CU030 A2955

RJAA Flight Activity (Flightaware)

Listeners: 0 out of 1325 total

Emergency/Guard: 121.500

RJAA Ground #1 (Archives)
Tokyo, Japan

Feed Status: UP
Listen in your browser - HTML5 player(in browser, HTML5)
Click here to listen with your own player(launches your MP3 player)

RJAA 181030Z 26004KT 190V320 9999 FEW030 13/M00 Q1000 NOSIG RMK 1CU030 A2955

RJAA Flight Activity (Flightaware)

Listeners: 1 out of 1325 total

Narita Ground: 121.850

RJAA Ground #2 (Archives)
Tokyo, Japan

Feed Status: UP
Listen in your browser - HTML5 player(in browser, HTML5)
Click here to listen with your own player(launches your MP3 player)

RJAA 181030Z 26004KT 190V320 9999 FEW030 13/M00 Q1000 NOSIG RMK 1CU030 A2955

RJAA Flight Activity (Flightaware)

Listeners: 1 out of 1325 total

Narita Ground: 121.950

RJAA Radar 119.025 (Archives)
Tokyo, Japan

Feed Status: UP
Listen in your browser - HTML5 player(in browser, HTML5)
Click here to listen with your own player(launches your MP3 player)

RJAA 181030Z 26004KT 190V320 9999 FEW030 13/M00 Q1000 NOSIG RMK 1CU030 A2955

RJAA Flight Activity (Flightaware)

Listeners: 1 out of 1325 total

Tokyo Radar: 119.025

RJAA Radar 120.2 (Archives)
Tokyo, Japan

Feed Status: UP
Listen in your browser - HTML5 player(in browser, HTML5)
Click here to listen with your own player(launches your MP3 player)

RJAA 181030Z 26004KT 190V320 9999 FEW030 13/M00 Q1000 NOSIG RMK 1CU030 A2955

RJAA Flight Activity (Flightaware)

Listeners: 1 out of 1325 total

Tokyo Radar: 120.200

RJAA Radar 120.6 (Archives)
Tokyo, Japan

Feed Status: UP
Listen in your browser - HTML5 player(in browser, HTML5)
Click here to listen with your own player(launches your MP3 player)

RJAA 181030Z 26004KT 190V320 9999 FEW030 13/M00 Q1000 NOSIG RMK 1CU030 A2955

RJAA Flight Activity (Flightaware)

Listeners: 1 out of 1325 total

Tokyo Radar: 120.600

RJAA Radar 132.1 (Archives)
Tokyo, Japan

Feed Status: UP
Listen in your browser - HTML5 player(in browser, HTML5)
Click here to listen with your own player(launches your MP3 player)

RJAA 181030Z 26004KT 190V320 9999 FEW030 13/M00 Q1000 NOSIG RMK 1CU030 A2955

RJAA Flight Activity (Flightaware)

Listeners: 1 out of 1325 total

Tokyo Radar: 132.100

RJAA Radar 133.35 (Archives)
Tokyo, Japan

Feed Status: UP
Listen in your browser - HTML5 player(in browser, HTML5)
Click here to listen with your own player(launches your MP3 player)

RJAA 181030Z 26004KT 190V320 9999 FEW030 13/M00 Q1000 NOSIG RMK 1CU030 A2955

RJAA Flight Activity (Flightaware)

Listeners: 1 out of 1325 total

Tokyo Radar: 133.350

RJAA Ramp #1 (Archives)
Tokyo, Japan

Feed Status: UP
Listen in your browser - HTML5 player(in browser, HTML5)
Click here to listen with your own player(launches your MP3 player)

RJAA 181030Z 26004KT 190V320 9999 FEW030 13/M00 Q1000 NOSIG RMK 1CU030 A2955

RJAA Flight Activity (Flightaware)

Listeners: 0 out of 1325 total

Narita Ramp: 121.600

RJAA Ramp #2 (Archives)
Tokyo, Japan

Feed Status: UP
Listen in your browser - HTML5 player(in browser, HTML5)
Click here to listen with your own player(launches your MP3 player)

RJAA 181030Z 26004KT 190V320 9999 FEW030 13/M00 Q1000 NOSIG RMK 1CU030 A2955

RJAA Flight Activity (Flightaware)

Listeners: 0 out of 1325 total

Narita Ramp: 121.750

RJAA TCA (Archives)
Tokyo, Japan

Feed Status: UP
Listen in your browser - HTML5 player(in browser, HTML5)
Click here to listen with your own player(launches your MP3 player)

RJAA 181030Z 26004KT 190V320 9999 FEW030 13/M00 Q1000 NOSIG RMK 1CU030 A2955

RJAA Flight Activity (Flightaware)

Listeners: 1 out of 1325 total

Tokyo TCA (Terminal Control Area): 119.450

RJAA Tokyo Control (Archives)
Tokyo, Japan

Feed Status: UP
Listen in your browser - HTML5 player(in browser, HTML5)
Click here to listen with your own player(launches your MP3 player)

RJAA 181030Z 26004KT 190V320 9999 FEW030 13/M00 Q1000 NOSIG RMK 1CU030 A2955

RJAA Flight Activity (Flightaware)

Listeners: 0 out of 1325 total

Tokyo Control: 125.900

RJAA Tower #1 (Archives)
Tokyo, Japan

Feed Status: UP
Listen in your browser - HTML5 player(in browser, HTML5)
Click here to listen with your own player(launches your MP3 player)

RJAA 181030Z 26004KT 190V320 9999 FEW030 13/M00 Q1000 NOSIG RMK 1CU030 A2955

RJAA Flight Activity (Flightaware)

Listeners: 2 out of 1325 total

Narita Tower (Rwy 16R/34L): 118.200

RJAA Tower #2 (Archives)
Tokyo, Japan

Feed Status: UP
Listen in your browser - HTML5 player(in browser, HTML5)
Click here to listen with your own player(launches your MP3 player)

RJAA 181030Z 26004KT 190V320 9999 FEW030 13/M00 Q1000 NOSIG RMK 1CU030 A2955

RJAA Flight Activity (Flightaware)

Listeners: 1 out of 1325 total

Narita Tower (Rwy 16L/34R): 118.350

RJAA Tower (Both) (Archives)
Tokyo, Japan

Feed Status: UP
Listen in your browser - HTML5 player(in browser, HTML5)
Click here to listen with your own player(launches your MP3 player)

RJAA 181030Z 26004KT 190V320 9999 FEW030 13/M00 Q1000 NOSIG RMK 1CU030 A2955

RJAA Flight Activity (Flightaware)

Listeners: 2 out of 1325 total

Narita Tower (Rwy 16L/34R): 118.350
Narita Tower (Rwy 16R/34L): 118.200

RJFF Approach (119.65) (Archives)
Fukuoka, Japan

Feed Status: UP
Listen in your browser - HTML5 player(in browser, HTML5)
Click here to listen with your own player(launches your MP3 player)

RJFF 181030Z 29005KT 240V310 9999 FEW040 12/03 Q1016 BECMG 16004KT RMK 1CU040 A3001

RJFF Flight Activity (Flightaware)

Listeners: 1 out of 1325 total

Fukuoka Approach: 119.650

RJFF ATIS (Archives)
Fukuoka, Japan

Feed Status: UP
Listen in your browser - HTML5 player(in browser, HTML5)
Click here to listen with your own player(launches your MP3 player)

RJFF 181030Z 29005KT 240V310 9999 FEW040 12/03 Q1016 BECMG 16004KT RMK 1CU040 A3001

RJFF Flight Activity (Flightaware)

Listeners: 0 out of 1325 total

Fukuoka ATIS: 127.200

RJFF Clearance Delivery (Archives)
Fukuoka, Japan

Feed Status: UP
Listen in your browser - HTML5 player(in browser, HTML5)
Click here to listen with your own player(launches your MP3 player)

RJFF 181030Z 29005KT 240V310 9999 FEW040 12/03 Q1016 BECMG 16004KT RMK 1CU040 A3001

RJFF Flight Activity (Flightaware)

Listeners: 0 out of 1325 total

Fukuoka Clearance Delivery: 121.925

RJFF Del/Gnd/Twr (Archives)
Fukuoka, Japan

Feed Status: UP
Listen in your browser - HTML5 player(in browser, HTML5)
Click here to listen with your own player(launches your MP3 player)

RJFF 181030Z 29005KT 240V310 9999 FEW040 12/03 Q1016 BECMG 16004KT RMK 1CU040 A3001

RJFF Flight Activity (Flightaware)

Listeners: 0 out of 1325 total

Fukuoka Clearance Delivery: 121.925
Fukuoka Ground: 121.700
Fukuoka Tower: 118.400

RJFF Departure (Archives)
Fukuoka, Japan

Feed Status: UP
Listen in your browser - HTML5 player(in browser, HTML5)
Click here to listen with your own player(launches your MP3 player)

RJFF 181030Z 29005KT 240V310 9999 FEW040 12/03 Q1016 BECMG 16004KT RMK 1CU040 A3001

RJFF Flight Activity (Flightaware)

Listeners: 0 out of 1325 total

Fukuoka Departure: 127.900

RJFF Ground (Archives)
Fukuoka, Japan

Feed Status: UP
Listen in your browser - HTML5 player(in browser, HTML5)
Click here to listen with your own player(launches your MP3 player)

RJFF 181030Z 29005KT 240V310 9999 FEW040 12/03 Q1016 BECMG 16004KT RMK 1CU040 A3001

RJFF Flight Activity (Flightaware)

Listeners: 0 out of 1325 total

Fukuoka Ground: 121.700

RJFF Radar (119.7) (Archives)
Fukuoka, Japan

Feed Status: UP
Listen in your browser - HTML5 player(in browser, HTML5)
Click here to listen with your own player(launches your MP3 player)

RJFF 181030Z 29005KT 240V310 9999 FEW040 12/03 Q1016 BECMG 16004KT RMK 1CU040 A3001

RJFF Flight Activity (Flightaware)

Listeners: 1 out of 1325 total

Fukuoka Radar: 119.700

RJFF Radar (121.25) (Archives)
Fukuoka, Japan

Feed Status: UP
Listen in your browser - HTML5 player(in browser, HTML5)
Click here to listen with your own player(launches your MP3 player)

RJFF 181030Z 29005KT 240V310 9999 FEW040 12/03 Q1016 BECMG 16004KT RMK 1CU040 A3001

RJFF Flight Activity (Flightaware)

Listeners: 1 out of 1325 total

Fukuoka Radar: 121.125

RJFF Radar/TCA (Archives)
Fukuoka, Japan

Feed Status: UP
Listen in your browser - HTML5 player(in browser, HTML5)
Click here to listen with your own player(launches your MP3 player)

RJFF 181030Z 29005KT 240V310 9999 FEW040 12/03 Q1016 BECMG 16004KT RMK 1CU040 A3001

RJFF Flight Activity (Flightaware)

Listeners: 0 out of 1325 total

Fukuoka Radar: 119.700
Fukuoka Terminal Control Area: 121.275

RJFF TCA (Archives)
Fukuoka, Japan

Feed Status: UP
Listen in your browser - HTML5 player(in browser, HTML5)
Click here to listen with your own player(launches your MP3 player)

RJFF 181030Z 29005KT 240V310 9999 FEW040 12/03 Q1016 BECMG 16004KT RMK 1CU040 A3001

RJFF Flight Activity (Flightaware)

Listeners: 0 out of 1325 total

Fukuoka Terminal Control Area: 121.275

RJFF Tower (Archives)
Fukuoka, Japan

Feed Status: UP
Listen in your browser - HTML5 player(in browser, HTML5)
Click here to listen with your own player(launches your MP3 player)

RJFF 181030Z 29005KT 240V310 9999 FEW040 12/03 Q1016 BECMG 16004KT RMK 1CU040 A3001

RJFF Flight Activity (Flightaware)

Listeners: 0 out of 1325 total

Fukuoka Tower: 118.400

RJFF Twr/App/Dep (Archives)
Fukuoka, Japan

Feed Status: UP
Listen in your browser - HTML5 player(in browser, HTML5)
Click here to listen with your own player(launches your MP3 player)

RJFF 181030Z 29005KT 240V310 9999 FEW040 12/03 Q1016 BECMG 16004KT RMK 1CU040 A3001

RJFF Flight Activity (Flightaware)

Listeners: 0 out of 1325 total

Fukuoka Approach: 119.650
Fukuoka Departure: 127.900
Fukuoka Radar: 121.125
Fukuoka Tower: 118.400

RJOO Tower (Archives)
Osaka, Japan

Feed Status: UP
Listen in your browser - HTML5 player(in browser, HTML5)
Click here to listen with your own player(launches your MP3 player)

RJOO 181000Z 01004KT 9999 FEW020 10/04 Q1011 RMK 1CU020 A2987

RJOO Flight Activity (Flightaware)

Listeners: 11 out of 1325 total

Osaka Tower: 118.100

RJSF RDO (Archives)
Sukagawa, Japan

Feed Status: UP
Listen in your browser - HTML5 player(in browser, HTML5)
Click here to listen with your own player(launches your MP3 player)

RJSF 181000Z 26008KT 220V290 9999 -SHRA FEW015 BKN045 BKN050 08/01 Q0997

RJSF Flight Activity (Flightaware)

Listeners: 1 out of 1325 total

Fukushima Radio: 118.050

RJTT App/Dep (Archives)
Tokyo, Japan

Feed Status: UP
Listen in your browser - HTML5 player(in browser, HTML5)
Click here to listen with your own player(launches your MP3 player)

RJTT 181030Z 32009KT 9999 FEW030 15/M01 Q1000 NOSIG RMK 1CU030 A2955

RJTT Flight Activity (Flightaware)

Listeners: 39 out of 1325 total

Tokyo Approach: 119.100
Tokyo Approach: 119.400
Tokyo Departure: 120.800
Tokyo Departure: 126.000

RJTT Approach (Archives)
Tokyo, Japan

Feed Status: UP
Listen in your browser - HTML5 player(in browser, HTML5)
Click here to listen with your own player(launches your MP3 player)

RJTT 181030Z 32009KT 9999 FEW030 15/M01 Q1000 NOSIG RMK 1CU030 A2955

RJTT Flight Activity (Flightaware)

Listeners: 11 out of 1325 total

Tokyo Approach: 119.100
Tokyo Approach: 119.400

RJTT ATIS (Archives)
Tokyo, Japan

Feed Status: UP
Listen in your browser - HTML5 player(in browser, HTML5)
Click here to listen with your own player(launches your MP3 player)

RJTT 181030Z 32009KT 9999 FEW030 15/M01 Q1000 NOSIG RMK 1CU030 A2955

RJTT Flight Activity (Flightaware)

Listeners: 1 out of 1325 total

Tokyo ATIS: 128.800

RJTT Company Channels (Archives)
Tokyo, Japan

Feed Status: UP
Listen in your browser - HTML5 player(in browser, HTML5)
Click here to listen with your own player(launches your MP3 player)

RJTT 181030Z 32009KT 9999 FEW030 15/M01 Q1000 NOSIG RMK 1CU030 A2955

RJTT Flight Activity (Flightaware)

Listeners: 18 out of 1325 total

Company TBD: 128.500
Company TBD: 131.850
Company TBD: 129.725
Company TBD: 129.700
Company TBD: 131.900
Company TBD: 129.850
Company TBD: 128.975
Company TBD: 123.675
Company TBD: 132.075

RJTT Del/Ground (Archives)
Tokyo, Japan

Feed Status: UP
Listen in your browser - HTML5 player(in browser, HTML5)
Click here to listen with your own player(launches your MP3 player)

RJTT 181030Z 32009KT 9999 FEW030 15/M01 Q1000 NOSIG RMK 1CU030 A2955

RJTT Flight Activity (Flightaware)

Listeners: 2 out of 1325 total

Tokyo Clearance Delivery: 121.825
Tokyo Ground: 121.700
Tokyo Ground: 118.225
Tokyo Ground: 121.625
Tokyo Ground: 121.975

RJTT Del/Twr/TCA/Gnd (Archives)
Tokyo, Japan

Feed Status: UP
Listen in your browser - HTML5 player(in browser, HTML5)
Click here to listen with your own player(launches your MP3 player)

RJTT 181030Z 32009KT 9999 FEW030 15/M01 Q1000 NOSIG RMK 1CU030 A2955

RJTT Flight Activity (Flightaware)

Listeners: 11 out of 1325 total

Tokyo Clearance Delivery: 121.825
Tokyo Ground: 121.975
Tokyo Ground: 121.625
Tokyo Ground: 121.700
Tokyo Ground: 118.225
Tokyo TCA: 124.750
Tokyo Tower: 118.100
Tokyo Tower: 118.575
Tokyo Tower: 118.725
Tokyo Tower: 124.350

RJTT Departure (Archives)
Tokyo, Japan

Feed Status: UP
Listen in your browser - HTML5 player(in browser, HTML5)
Click here to listen with your own player(launches your MP3 player)

RJTT 181030Z 32009KT 9999 FEW030 15/M01 Q1000 NOSIG RMK 1CU030 A2955

RJTT Flight Activity (Flightaware)

Listeners: 1 out of 1325 total

Tokyo Departure: 120.800
Tokyo Departure: 126.000

RJTT Tokyo Control (Archives)
Tokyo, Japan

Feed Status: UP
Listen in your browser - HTML5 player(in browser, HTML5)
Click here to listen with your own player(launches your MP3 player)

RJTT 181030Z 32009KT 9999 FEW030 15/M01 Q1000 NOSIG RMK 1CU030 A2955

RJTT Flight Activity (Flightaware)

Listeners: 33 out of 1325 total

Tokyo Control: 133.700
Tokyo Control: 125.900
Tokyo Control: 120.500

RJTT Twr/TCA (Archives)
Tokyo, Japan

Feed Status: UP
Listen in your browser - HTML5 player(in browser, HTML5)
Click here to listen with your own player(launches your MP3 player)

RJTT 181030Z 32009KT 9999 FEW030 15/M01 Q1000 NOSIG RMK 1CU030 A2955

RJTT Flight Activity (Flightaware)

Listeners: 5 out of 1325 total

Tokyo TCA: 124.750
Tokyo Tower: 118.100
Tokyo Tower: 118.575
Tokyo Tower: 118.725
Tokyo Tower: 124.350

RJTY Approach (Archives)
Tokyo, Japan

Feed Status: UP
Listen in your browser - HTML5 player(in browser, HTML5)
Click here to listen with your own player(launches your MP3 player)

RJTY 181056Z AUTO 26003KT 10SM CLR 14/M05 A2962 RMK AO2 SLP032 T01371050 FZRANO $

RJTY Flight Activity (Flightaware)

Listeners: 10 out of 1325 total

Yokota Approach: 118.300
Yokota APproach: 123.800
Yokota Approach: 120.700

RJTY ATIS (Archives)
Tokyo, Japan

Feed Status: UP
Listen in your browser - HTML5 player(in browser, HTML5)
Click here to listen with your own player(launches your MP3 player)

RJTY 181056Z AUTO 26003KT 10SM CLR 14/M05 A2962 RMK AO2 SLP032 T01371050 FZRANO $

RJTY Flight Activity (Flightaware)

Listeners: 0 out of 1325 total

Yokota ATIS: 126.400

RJTY Ground (Archives)
Tokyo, Japan

Feed Status: UP
Listen in your browser - HTML5 player(in browser, HTML5)
Click here to listen with your own player(launches your MP3 player)

RJTY 181056Z AUTO 26003KT 10SM CLR 14/M05 A2962 RMK AO2 SLP032 T01371050 FZRANO $

RJTY Flight Activity (Flightaware)

Listeners: 0 out of 1325 total

Yokota Ground: 133.200

RJTY Ground/Tower (Archives)
Tokyo, Japan

Feed Status: UP
Listen in your browser - HTML5 player(in browser, HTML5)
Click here to listen with your own player(launches your MP3 player)

RJTY 181056Z AUTO 26003KT 10SM CLR 14/M05 A2962 RMK AO2 SLP032 T01371050 FZRANO $

RJTY Flight Activity (Flightaware)

Listeners: 1 out of 1325 total

Yokota Ground: 133.200
Yokota Tower: 134.300

RJTY Tower (Archives)
Tokyo, Japan

Feed Status: UP
Listen in your browser - HTML5 player(in browser, HTML5)
Click here to listen with your own player(launches your MP3 player)

RJTY 181056Z AUTO 26003KT 10SM CLR 14/M05 A2962 RMK AO2 SLP032 T01371050 FZRANO $

RJTY Flight Activity (Flightaware)

Listeners: 3 out of 1325 total

Yokota Tower: 134.300

ROAH Gnd/Twr/App
Okinawa, Japan

Feed Status: DOWN
Offline since: 2021-03-01 08:55:08 UTC

RODN 181056Z AUTO 03012KT 10SM CLR 17/10 A3003 RMK AO2 SLP176 T01660095 $


ROAH Naha ACC
Okinawa, Japan

Feed Status: DOWN
Offline since: 2021-03-01 08:55:08 UTC

RODN 181056Z AUTO 03012KT 10SM CLR 17/10 A3003 RMK AO2 SLP176 T01660095 $


RODN Gnd/Twr/App
Okinawa, Japan

Feed Status: DOWN
Offline since: 2021-03-01 08:55:08 UTC

RODN 181056Z AUTO 03012KT 10SM CLR 17/10 A3003 RMK AO2 SLP176 T01660095 $


ROTM Gnd/Twr
Okinawa, Japan

Feed Status: DOWN
Offline since: 2021-03-01 08:55:08 UTC

RODN 181056Z AUTO 03012KT 10SM CLR 17/10 A3003 RMK AO2 SLP176 T01660095 $


UAAA Approach (Archives)
Almaty, Kazakhstan

Feed Status: UP
Listen in your browser - HTML5 player(in browser, HTML5)
Click here to listen with your own player(launches your MP3 player)

UAAA 181030Z 23005MPS 9999 SCT050CB BKN100 20/02 Q1017 R23L/CLRD65 TEMPO 25005G15MPS

UAAA Flight Activity (Flightaware)

Listeners: 0 out of 1325 total

Almaty Approach: 124.800

UAAA Tower (Archives)
Almaty, Kazakhstan

Feed Status: UP
Listen in your browser - HTML5 player(in browser, HTML5)
Click here to listen with your own player(launches your MP3 player)

UAAA 181030Z 23005MPS 9999 SCT050CB BKN100 20/02 Q1017 R23L/CLRD65 TEMPO 25005G15MPS

UAAA Flight Activity (Flightaware)

Listeners: 0 out of 1325 total

Almaty Tower: 119.400

UAAA Tower/Approach (Archives)
Almaty, Kazakhstan

Feed Status: UP
Listen in your browser - HTML5 player(in browser, HTML5)
Click here to listen with your own player(launches your MP3 player)

UAAA 181030Z 23005MPS 9999 SCT050CB BKN100 20/02 Q1017 R23L/CLRD65 TEMPO 25005G15MPS

UAAA Flight Activity (Flightaware)

Listeners: 1 out of 1325 total

Almaty Approach: 124.800
Almaty Tower: 119.400

UNNT Gnd/Twr/App/Radar/Misc (Archives)
Novosibirsk, Russia

Feed Status: UP
Listen in your browser - HTML5 player(in browser, HTML5)
Click here to listen with your own player(launches your MP3 player)

UNNT 181030Z 19006MPS 9999 OVC029CB 05/00 Q1010 R25/290155 R16/290155 NOSIG RMK QFE747/0997

UNNT Flight Activity (Flightaware)

Listeners: 15 out of 1325 total

ACC_Novosibirsk-Control [5th military channel]: 128.500
ACC_Novosibirsk-Control [Southeast]: 126.100
ACC_Novosibirsk-Control [West]: 127.000
GPA_Kristallik [Severniy airfield]: 123.425
GPA_Sernisiy [Chkalovskiy airfield]: 124.750
GPA_Tomsk Information 1: 134.500
MIL_3 [3rd military channel]: 130.750
MIL_Larek [Shilovo facility]: 123.750
MIL_Maneken [Chkalovskiy airfield]: 123.550
MIL_Novosibirsk-1 [1st military channel]: 124.000
MIL_Noyabr' 31: 124.900
MIL_Trimaran: 124.500
SP_Air-to-Air: 123.450
SP_Air-to-Air 2: 123.400
SP_Common backup frequency: 129.000
SP_Emergency: 121.500
SP_Emergency 2: 123.100
SP_Flyoff: 124.375
SURF_Boarding: 163.425
SURF_Duty chart: 163.800
SURF_O&D Service: 163.325
SURF_Search & Rescue: 164.000
SURF_Security: 163.750
SURF_Tower surf: 163.650
SURF_Vehicles: 163.850
UNNT_Backup frequency: 127.100
UNNT_Novosibirsk-Approach: 127.500
UNNT_Novosibirsk-Ground: 121.700
UNNT_Novosibirsk-Radar: 122.000
UNNT_Novosibirsk-Tower: 118.500
UNNT_Novosibirsk-Transit: 131.600
UNNT_S7 FOCC: 131.925

UNOO Gnd/Tower/App (Archives)
Omsk, Russia

Feed Status: UP
Listen in your browser - HTML5 player(in browser, HTML5)
Click here to listen with your own player(launches your MP3 player)

UNOO 181030Z 30009MPS 9999 BKN033CB 11/M08 Q1007 R25/CLRD60 NOSIG RMK QFE747

UNOO Flight Activity (Flightaware)

Listeners: 4 out of 1325 total

Aerodrom Kalachevo: 123.300
Aerodrom Marianovka: 123.000
Emergency/Guard: 121.500
Novosibirsk Control (Sector 7): 132.500
Novosibirsk Control (Sector 8): 132.900
Omsk Approach (FL060-FL265): 131.200
Omsk Apron: 118.800
Omsk Start/Radar: 119.000
Omsk Taxiing: 121.700
Omsk Transit: 131.700
UNOS/OMSK-Severny: 124.000

UNTT Gnd/Info/Radar/Control (Archives)
Tomsk, Russia

Feed Status: UP
Listen in your browser - HTML5 player(in browser, HTML5)
Click here to listen with your own player(launches your MP3 player)

UNTT Flight Activity (Flightaware)

Listeners: 0 out of 1325 total

Common Backup Frequency: 129.000
Emergency/Guard: 121.500
Novosibirsk Control (Sector 2): 126.100
Novosibirsk Control (Sector 3): 129.300
Novosibirsk Control (Sector 5): 132.300
Tomsk Ground: 118.800
Tomsk Information 1: 134.500
Tomsk Krug (Radar): 127.300
Tomsk Transit: 131.875
Troynik (Golovino): 122.400

USTR Gnd/Twr/App (Archives)
Tyumen, Russia

Feed Status: UP
Listen in your browser - HTML5 player(in browser, HTML5)
Click here to listen with your own player(launches your MP3 player)

USTR 181030Z 02010MPS 9999 FEW053CB 03/M16 Q1023 R03/CLRD65 R30/CLRD65 TEMPO 01015G20MPS

USTR Flight Activity (Flightaware)

Listeners: 0 out of 1325 total

Tyumen Approach: 126.100
Tyumen Control: 132.600
Tyumen Control: 133.600
Tyumen Info (Regional): 133.400
Tyumen Start: 118.200
Tyumen Transit: 131.800

USUU Twr/App/Control (Archives)
Kurgan, Russia

Feed Status: UP
Listen in your browser - HTML5 player(in browser, HTML5)
Click here to listen with your own player(launches your MP3 player)

USUU Flight Activity (Flightaware)

Listeners: 0 out of 1325 total

Aerodromnaya 50: 164.100
Baggage Handling: 164.025
Kurgan Approach: 120.300
Kurgan Tower: 134.300
Kurgan/USUU Transit: 131.700
Kurtamysh: 122.450
Ural Control Sector 4: 119.700
USUL Tower: 129.600

VCBI Director
Colombo, Sri Lanka

Feed Status: DOWN
Offline since: 2021-04-13 00:55:06 UTC

VCBI 181010Z 24011KT 210V270 9999 SCT018 32/25 Q1010 NOSIG

Colombo Director: 132.400

VGHS Tower
Dhaka, Bangladesh

Feed Status: DOWN
Offline since: 2021-04-15 09:42:40 UTC

VGHS 181100Z 20010KT 4000 HZ FEW015 33/20 Q1006 NOSIG

Bangladesh Tower: 118.300

VHHH ATIS
Hong Kong, Hong Kong

Feed Status: DOWN
Offline since: 2020-04-09 19:09:06 UTC

VHHH 181100Z 10015KT 9000 FEW030 SCT045 24/15 Q1013 NOSIG

Hong Kong Arrival ATIS: 128.200

VHHH Clearance Delivery
Hong Kong, Hong Kong

Feed Status: DOWN
Offline since: 2020-04-09 19:09:06 UTC

VHHH 181100Z 10015KT 9000 FEW030 SCT045 24/15 Q1013 NOSIG

Hong Kong Clearance Delivery: 129.900

VHHH Ground
Hong Kong, Hong Kong

Feed Status: DOWN
Offline since: 2020-04-09 19:08:40 UTC

VHHH 181100Z 10015KT 9000 FEW030 SCT045 24/15 Q1013 NOSIG

Hong Kong Ground (North): 121.600
Hong Kong Ground (South): 122.550

VHHH Ground (North)
Hong Kong, Hong Kong

Feed Status: DOWN
Offline since: 2020-04-09 19:09:06 UTC

VHHH 181100Z 10015KT 9000 FEW030 SCT045 24/15 Q1013 NOSIG

Hong Kong Ground (North): 121.600

VHHH Ground (South)
Hong Kong, Hong Kong

Feed Status: DOWN
Offline since: 2020-04-09 19:09:06 UTC

VHHH 181100Z 10015KT 9000 FEW030 SCT045 24/15 Q1013 NOSIG

Hong Kong Ground (South): 122.550

VMMC Tower (Archives)
Taipa, China

Feed Status: UP
Listen in your browser - HTML5 player(in browser, HTML5)
Click here to listen with your own player(launches your MP3 player)

VMMC 181030Z 09013KT 050V120 9000 FEW033 SCT045 23/18 Q1013 NOSIG

VMMC Flight Activity (Flightaware)

Listeners: 5 out of 1325 total

Macau Tower: 118.000

VTBS Approach (East) (Archives)
Bangkok, Thailand

Feed Status: UP
Listen in your browser - HTML5 player(in browser, HTML5)
Click here to listen with your own player(launches your MP3 player)

VTBS 181030Z VRB02KT 9999 FEW020 31/22 Q1007 NOSIG

VTBS Flight Activity (Flightaware)

Listeners: 0 out of 1325 total

Bangkok Approach (East): 122.350

VTBS Approach (North) (Archives)
Bangkok, Thailand

Feed Status: UP
Listen in your browser - HTML5 player(in browser, HTML5)
Click here to listen with your own player(launches your MP3 player)

VTBS 181030Z VRB02KT 9999 FEW020 31/22 Q1007 NOSIG

VTBS Flight Activity (Flightaware)

Listeners: 0 out of 1325 total

Bangkok Approach (North): 121.700

VTBS Approach 119.1 (Archives)
Bangkok, Thailand

Feed Status: UP
Listen in your browser - HTML5 player(in browser, HTML5)
Click here to listen with your own player(launches your MP3 player)

VTBS 181030Z VRB02KT 9999 FEW020 31/22 Q1007 NOSIG

VTBS Flight Activity (Flightaware)

Listeners: 0 out of 1325 total

Bangkok Approach: 119.100

VTBS Approach 119.4 (Archives)
Bangkok, Thailand

Feed Status: UP
Listen in your browser - HTML5 player(in browser, HTML5)
Click here to listen with your own player(launches your MP3 player)

VTBS 181030Z VRB02KT 9999 FEW020 31/22 Q1007 NOSIG

VTBS Flight Activity (Flightaware)

Listeners: 0 out of 1325 total

Bangkok Approach: 119.400

VTBS Approach 120.3 (Archives)
Bangkok, Thailand

Feed Status: UP
Listen in your browser - HTML5 player(in browser, HTML5)
Click here to listen with your own player(launches your MP3 player)

VTBS 181030Z VRB02KT 9999 FEW020 31/22 Q1007 NOSIG

VTBS Flight Activity (Flightaware)

Listeners: 0 out of 1325 total

Bangkok Approach: 120.300

VTBS Approach/Arrival (Archives)
Bangkok, Thailand

Feed Status: UP
Listen in your browser - HTML5 player(in browser, HTML5)
Click here to listen with your own player(launches your MP3 player)

VTBS 181030Z VRB02KT 9999 FEW020 31/22 Q1007 NOSIG

VTBS Flight Activity (Flightaware)

Listeners: 2 out of 1325 total

Bangkok Approach: 124.350
Bangkok Approach: 125.200
Bangkok Approach: 124.700
Bangkok Approach: 126.300
Bangkok Approach: 133.400
Bangkok Arrival (VTBD): 125.500

VTBS Arrival 121.1 (Archives)
Bangkok, Thailand

Feed Status: UP
Listen in your browser - HTML5 player(in browser, HTML5)
Click here to listen with your own player(launches your MP3 player)

VTBS 181030Z VRB02KT 9999 FEW020 31/22 Q1007 NOSIG

VTBS Flight Activity (Flightaware)

Listeners: 0 out of 1325 total

Bangkok Arrival: 121.100

VTBS ATIS (Archives)
Bangkok, Thailand

Feed Status: UP
Listen in your browser - HTML5 player(in browser, HTML5)
Click here to listen with your own player(launches your MP3 player)

VTBS 181030Z VRB02KT 9999 FEW020 31/22 Q1007 NOSIG

VTBS Flight Activity (Flightaware)

Listeners: 0 out of 1325 total

Bangkok D-ATIS: 127.650

VTBS Departure (Archives)
Bangkok, Thailand

Feed Status: UP
Listen in your browser - HTML5 player(in browser, HTML5)
Click here to listen with your own player(launches your MP3 player)

VTBS 181030Z VRB02KT 9999 FEW020 31/22 Q1007 NOSIG

VTBS Flight Activity (Flightaware)

Listeners: 0 out of 1325 total

Bangkok Departure: 119.250

VTBS Ground (All) (Archives)
Bangkok, Thailand

Feed Status: UP
Listen in your browser - HTML5 player(in browser, HTML5)
Click here to listen with your own player(launches your MP3 player)

VTBS 181030Z VRB02KT 9999 FEW020 31/22 Q1007 NOSIG

VTBS Flight Activity (Flightaware)

Listeners: 0 out of 1325 total

Bangkok Ground (East): 121.650
Bangkok Ground (Main): 121.750
Bangkok Ground (West): 121.950

VTBS Ground (East) (Archives)
Bangkok, Thailand

Feed Status: UP
Listen in your browser - HTML5 player(in browser, HTML5)
Click here to listen with your own player(launches your MP3 player)

VTBS 181030Z VRB02KT 9999 FEW020 31/22 Q1007 NOSIG

VTBS Flight Activity (Flightaware)

Listeners: 0 out of 1325 total

Bangkok Ground (East): 121.650

VTBS Ground (Main) (Archives)
Bangkok, Thailand

Feed Status: UP
Listen in your browser - HTML5 player(in browser, HTML5)
Click here to listen with your own player(launches your MP3 player)

VTBS 181030Z VRB02KT 9999 FEW020 31/22 Q1007 NOSIG

VTBS Flight Activity (Flightaware)

Listeners: 0 out of 1325 total

Bangkok Ground (Main): 121.750

VTBS Ground (West) (Archives)
Bangkok, Thailand

Feed Status: UP
Listen in your browser - HTML5 player(in browser, HTML5)
Click here to listen with your own player(launches your MP3 player)

VTBS 181030Z VRB02KT 9999 FEW020 31/22 Q1007 NOSIG

VTBS Flight Activity (Flightaware)

Listeners: 0 out of 1325 total

Bangkok Ground (West): 121.950

VTBS Tower (Archives)
Bangkok, Thailand

Feed Status: UP
Listen in your browser - HTML5 player(in browser, HTML5)
Click here to listen with your own player(launches your MP3 player)

VTBS 181030Z VRB02KT 9999 FEW020 31/22 Q1007 NOSIG

VTBS Flight Activity (Flightaware)

Listeners: 1 out of 1325 total

Bangkok Tower (Rwy 01L/19R): 119.000
Bangkok Tower (Rwy 01R/19L): 118.200

VTBS Tower (Rwy 01L/19R) (Archives)
Bangkok, Thailand

Feed Status: UP
Listen in your browser - HTML5 player(in browser, HTML5)
Click here to listen with your own player(launches your MP3 player)

VTBS 181030Z VRB02KT 9999 FEW020 31/22 Q1007 NOSIG

VTBS Flight Activity (Flightaware)

Listeners: 0 out of 1325 total

Bangkok Tower (Rwy 01L/19R): 119.000

VTBS Tower (Rwy 01R/19L) (Archives)
Bangkok, Thailand

Feed Status: UP
Listen in your browser - HTML5 player(in browser, HTML5)
Click here to listen with your own player(launches your MP3 player)

VTBS 181030Z VRB02KT 9999 FEW020 31/22 Q1007 NOSIG

VTBS Flight Activity (Flightaware)

Listeners: 0 out of 1325 total

Bangkok Tower (Rwy 01R/19L): 118.200

VTSS Approach (Archives)
Songkhla, Thailand

Feed Status: UP
Listen in your browser - HTML5 player(in browser, HTML5)
Click here to listen with your own player(launches your MP3 player)

VTSS 181030Z 24005KT 200V260 9999 SCT020 SCT100 31/24 Q1008 NOSIG

VTSS Flight Activity (Flightaware)

Listeners: 0 out of 1325 total

Hat Yai Approach: 126.700

WAHH Approach
Yogyakarta, Indonesia

Feed Status: DOWN
Offline since: 2019-01-09 17:03:03 UTC

Adisutjipto Approach: 123.400

WBKK Gnd/Twr/App
Kota Kinabalu, Malaysia

Feed Status: DOWN
Offline since: 2020-09-16 00:42:06 UTC

WBKK 181030Z VRB05KT 9999 FEW014 29/25 Q1010 NOSIG

Kinabalu Director: 119.100
Kinabalu Ground: 121.600
Kinabalu Radar: 126.100
Kinabalu Radar: 132.450
Kinabalu Tower: 118.300

WBKK Gnd/Twr/Radar/Control (Archives)
Kota Kinabalu, Malaysia

Feed Status: UP
Listen in your browser - HTML5 player(in browser, HTML5)
Click here to listen with your own player(launches your MP3 player)

WBKK 181030Z VRB05KT 9999 FEW014 29/25 Q1010 NOSIG


Listeners: 2 out of 1325 total

Kinabalu Director: 119.100
Kinabalu Ground: 121.600
Kinabalu Radar: 126.100
Kinabalu Radar: 132.450
Kinabalu Radar: 128.300
Kinabalu Tower: 118.300

WBKS Approach (Archives)
Sandakan, Malaysia

Feed Status: UP
Listen in your browser - HTML5 player(in browser, HTML5)
Click here to listen with your own player(launches your MP3 player)

WBKS 181000Z 04005KT 360V070 9999 FEW016 29/24 Q1007


Listeners: 4 out of 1325 total

Sandakan Approach/Departure: 123.200

WBKS ATIS (Archives)
Sandakan, Malaysia

Feed Status: UP
Listen in your browser - HTML5 player(in browser, HTML5)
Click here to listen with your own player(launches your MP3 player)

WBKS 181000Z 04005KT 360V070 9999 FEW016 29/24 Q1007


Listeners: 1 out of 1325 total

Sandakan ATIS: 128.200

WBKS Emergency/Guard (Archives)
Sandakan, Malaysia

Feed Status: UP
Listen in your browser - HTML5 player(in browser, HTML5)
Click here to listen with your own player(launches your MP3 player)

WBKS 181000Z 04005KT 360V070 9999 FEW016 29/24 Q1007


Listeners: 1 out of 1325 total

Emergency/Guard: 121.500

WBKS Gnd/Twr/App/Guard (Archives)
Sandakan, Malaysia

Feed Status: UP
Listen in your browser - HTML5 player(in browser, HTML5)
Click here to listen with your own player(launches your MP3 player)

WBKS 181000Z 04005KT 360V070 9999 FEW016 29/24 Q1007


Listeners: 1 out of 1325 total

Emergency/Guard: 121.500
Sandakan Approach/Departure: 123.200
Sandakan Ground: 121.900
Sandakan Tower: 122.050

WBKS Ground (Archives)
Sandakan, Malaysia

Feed Status: UP
Listen in your browser - HTML5 player(in browser, HTML5)
Click here to listen with your own player(launches your MP3 player)

WBKS 181000Z 04005KT 360V070 9999 FEW016 29/24 Q1007


Listeners: 1 out of 1325 total

Sandakan Ground: 121.900

WBKS Tower (Archives)
Sandakan, Malaysia

Feed Status: UP
Listen in your browser - HTML5 player(in browser, HTML5)
Click here to listen with your own player(launches your MP3 player)

WBKS 181000Z 04005KT 360V070 9999 FEW016 29/24 Q1007


Listeners: 1 out of 1325 total

Sandakan Tower: 122.050

WMKB Radar (Archives)
Penang, Malaysia

Feed Status: UP
Listen in your browser - HTML5 player(in browser, HTML5)
Click here to listen with your own player(launches your MP3 player)

WMKB 181000Z 30007KT 250V010 9999 FEW020 31/25 Q1008 NOSIG


Listeners: 0 out of 1325 total

Butterworth Radar: 125.800

WMKK Control/Info/Radar (Archives)
Sepang, Malaysia

Feed Status: UP
Listen in your browser - HTML5 player(in browser, HTML5)
Click here to listen with your own player(launches your MP3 player)

WMKK 181030Z VRB02KT 9999 TS VCSH FEW017CB 30/23 Q1009 NOSIG


Listeners: 1 out of 1325 total

Lumpur Departure: 120.350
Lumpur Departure: 124.650
Lumpur Departure: 125.100
Lumpur Departure: 135.250
Lumpur Departure: 135.750
Lumpur Information (North): 134.650
Lumpur Information (South): 126.100
Lumpur Radar: 133.700
Lumpur Radar: 132.600
Lumpur Radar: 133.400
Lumpur Radar: 119.450
Lumpur Radar: 125.850
Lumpur Radar: 118.650
Lumpur Radar: 124.200
Lumpur Radar: 121.250
Lumpur Radar: 128.350
Lumpur Radar (East): 134.250
Lumpur Radar (North): 132.800
Lumpur Radar (South): 123.750

WMSA Del/Gnd/Twr/App (Archives)
Subang, Malaysia

Feed Status: UP
Listen in your browser - HTML5 player(in browser, HTML5)
Click here to listen with your own player(launches your MP3 player)

WMSA 181000Z 30009KT 260V330 9999 FEW017CB 31/24 Q1009


Listeners: 0 out of 1325 total

Lumpur Approach: 119.450
Lumpur Director: 124.200
Subang Clearance Delivery: 126.000
Subang Ground: 121.900
Subang Tower: 118.200

ZBAA Tower (Archives)
Beijing, China

Feed Status: UP
Listen in your browser - HTML5 player(in browser, HTML5)
Click here to listen with your own player(launches your MP3 player)

ZBAA 181030Z 20006MPS CAVOK 23/M03 Q1010 NOSIG


Listeners: 13 out of 1325 total

Beijing Tower (Rwy 01/19): 118.600

ZYCY Tower
Chaoyang, China

Feed Status: DOWN
Offline since: 2020-07-23 03:04:23 UTC


Chaoyang Tower: 118.350